SL-12 DEB, 44982

Orbit data source: Space-Track

SL-12 DEB, 44982 is space debris in HEO originally from a launch on Mon, 25 Dec 2006 UTC launched from the Tyuratam Missile And Space Complex (TTMTR). Debris objects in space refer to the collection of defunct objects orbiting the Earth. Examples of debris include non-operational satellites, rocket bodies, and fragments generated from explosions, collisions, or faulty payload assembly.

Loading next visibility...
SL-12 DEB details
Identifier
44982, 2006-062S
Orbit
HEO
Last TLE update14 hours ago
Origin
Flag of CISVVKO VKS (CIS)
ManufacturerRKKE
MissionSpacecraft
Bus & MotorUnknown
MassUnknown
Launch date (UTC)
2006-12-25 (18 years ago)
Launch vehicleUnknown
Launch site
Tyuratam Missile And Space Complex (TTMTR)
Object type
Payload
Rocket body
Debris
Shape & HBRUnknown
Radar Cross SectionMedium (>0.1 m² and <1 m²)

Expand to show TLE details & history

TLE from 14 hours ago
0 SL-12 DEB
1 44982U 06062S   24361.04036243  .00000211  00000-0  14251-2 0  9998
2 44982  64.9232 191.5558 5545511 293.1540  19.0119  4.28181888 80512
Epoch: 2024-12-26T00:58Z
Definitive object data (Epoch: 2024-12-26T00:58:07.313Z)
Latitude-0.00038°
Longitude82.01104°
Altitude2,740.153 km
Speed7.91 km/s
True Right ascension12h 46m 16s
True Declination0° 00' 01"
Sunlit
Object was in daylight at TLE epoch
Visualization TLE readout
Latitude51.25394°
Longitude-133.831°
Altitude18,268.74 km
Speed2.734 km/s
Apparent Right ascension23h 16m 19s
Apparent Declination39° 27' 54"
Sunlit
Object is in daylight
Visualization observer readout
Local Sidereal Time14:23:09
Azimuth34.189° NE
Elevation0.105°
Doppler factor1
Orbital elements
Apogee altitude18,523.339 km
Perigee altitude757.257 km
Semi-major axis16,018.435 km
Eccentricity0.5545511
Inclination64.9232°
RAAN191.5558°
Arg. of periapsis293.154°
True anomaly66.99145°
Mean anomaly19.0119°
Eccentric anomaly39.01331°
Mean motion1.07056 °/min
BSTAR0.0014251
Orbital period336.27 mins
Loading maneuver chart data...
Loading historical data...
Loading historical data...
Loading historical data...
Loading historical data...
Loading historical data...
Loading historical data...
Loading historical data...

SL-12 DEB Visibility forecast

Observer location: undefined°, undefined

Span
Click to sort rows by Start time (UTC) header in descending order
Start Az.
Max El. time (UTC)
Max El. Az.
Max El.
End time (UTC)
End Az.
257 mins2024-12-26 18:01:13.651Z272.087° WNW2024-12-26 19:36:13.651Z14.125° NNE39.69°2024-12-26 22:18:13.651Z120.593° SE
206 mins2024-12-27 00:31:13.651Z329.057° NNW2024-12-27 02:33:13.651Z294.983° NW35.257°2024-12-27 03:57:13.651Z232.688° WSW
91 mins2024-12-27 10:47:13.651Z97.577° ESE2024-12-27 11:12:13.651Z56.212° ENE21.408°2024-12-27 12:18:13.651Z25.466° NE
|